GFSNIL_850_spd_159.txt.gz
Wind_Speed
6 7 7 8 9 10 12 14 17 18 17 16 18 17 20 19 22 25 39 39 38 33
5 4 4 4 3 3 5 8 10 17 22 20 21 19 19 22 22 18 28 42 40 35
1 2 4 5 7 9 13 14 15 14 19 21 21 20 20 23 25 28 39 44 38 37
5 5 4 4 8 12 13 14 18 18 18 17 17 17 16 21 29 31 35 34 37 32
6 4 3 6 6 9 3 0 6 10 14 15 15 15 13 15 28 32 31 28 25 27
3 3 4 1 6 7 4 1 7 8 11 12 13 11 13 17 23 28 25 18 19 18
6 2 3 5 6 8 10 7 8 7 10 10 8 7 8 14 22 16 14 15 15 15
7 7 5 5 3 4 8 11 8 10 11 12 14 18 20 18 17 19 16 13 14 12
9 9 9 9 9 8 11 14 15 16 17 15 13 11 10 9 7 9 11 15 12 8
12 12 10 9 9 11 12 14 17 18 16 14 13 10 9 9 11 13 14 12 10 9
12 11 12 13 14 15 15 15 16 16 15 16 15 13 13 14 16 16 14 12 11 9
15 14 13 14 16 17 17 20 20 19 18 19 21 17 16 16 17 18 18 15 13 9
17 14 12 15 17 18 17 19 19 20 19 19 22 18 17 13 14 16 15 14 11 8
18 14 13 15 16 17 17 18 20 21 21 20 20 20 18 14 14 13 14 12 10 9

GFSNIL_850_spd_162.txt.gz
Wind_Speed
11 11 10 9 9 10 10 11 14 16 17 18 20 19 20 20 22 22 22 26 32 29
9 9 10 9 9 9 9 8 9 14 19 18 17 21 22 22 22 20 20 24 25 30
8 8 7 6 7 8 10 11 11 12 15 20 21 20 21 21 23 20 19 20 29 38
7 7 6 6 6 10 15 18 18 19 20 21 22 22 22 20 21 20 23 28 28 30
7 7 6 6 5 6 7 10 11 14 19 18 20 20 21 16 16 22 29 25 29 31
8 7 7 5 1 3 1 3 5 8 13 16 16 16 18 17 17 21 25 23 24 29
7 6 6 5 3 7 8 7 6 8 11 14 16 13 12 12 15 16 14 16 17 13
8 7 5 5 4 6 8 12 17 17 17 15 15 14 10 9 15 20 19 15 13 12
10 9 7 7 7 10 10 15 14 16 19 20 18 15 18 21 23 17 16 16 16 13
13 12 13 10 11 13 14 15 16 16 15 16 15 13 14 13 14 13 13 15 12 10
14 13 12 11 12 15 16 17 17 16 16 17 18 16 15 15 16 17 15 13 12 11
14 13 14 14 15 17 16 18 18 17 16 18 19 15 16 18 19 19 18 17 14 10
18 15 15 16 18 20 20 21 22 22 21 21 23 18 17 16 18 19 18 15 12 9
20 17 16 19 19 19 19 20 21 21 21 22 21 20 17 15 16 16 16 14 11 9

GFSNIL_850_spd_165.txt.gz
Wind_Speed
8 10 12 12 9 11 11 11 11 11 13 14 14 15 17 19 20 17 17 20 19 31
10 11 8 7 7 6 7 9 11 13 16 16 16 17 19 18 17 18 19 20 20 26
7 6 7 6 6 6 8 8 8 10 11 16 17 17 17 16 16 15 19 15 16 23
9 9 7 6 7 9 11 13 14 16 17 15 16 16 17 18 18 17 20 18 18 17
7 5 5 7 8 10 13 16 16 18 21 20 19 16 14 16 18 14 18 20 22 26
9 9 8 7 6 6 7 5 7 6 8 14 16 16 16 15 15 15 14 14 21 24
7 7 7 6 2 1 3 5 1 4 3 9 12 11 14 13 12 13 8 5 3 10
9 7 6 5 2 3 6 8 10 8 7 9 11 9 10 8 5 11 17 14 15 13
10 9 6 5 5 7 13 15 15 14 15 16 15 12 12 19 22 18 17 16 15 14
11 11 10 9 9 11 17 16 18 19 18 19 19 18 21 18 18 17 16 15 13 13
14 14 14 10 12 14 16 15 16 16 15 16 16 15 15 15 16 18 17 14 12 11
15 15 15 13 15 17 18 18 18 18 20 21 19 16 18 19 20 20 20 16 13 11
16 15 16 15 18 18 18 19 18 19 19 20 22 19 17 16 17 17 16 13 11 10
18 17 16 18 20 21 22 21 21 22 21 21 20 19 17 15 15 15 14 13 11 9

GFSNIL_850_spd_168.txt.gz
Wind_Speed
12 13 16 17 14 12 9 8 9 10 13 12 8 6 9 12 15 12 11 12 18 30
10 11 9 6 7 4 3 6 8 9 11 14 13 11 12 14 13 12 12 12 16 23
8 8 6 6 8 9 9 8 9 9 12 14 14 15 15 14 14 13 13 15 14 17
13 13 11 9 6 6 8 8 10 11 12 10 11 13 14 13 12 12 10 13 14 17
10 8 7 5 4 5 9 12 11 14 17 16 14 11 11 12 11 11 10 11 15 17
8 7 5 5 5 7 8 9 8 6 7 13 12 11 13 9 9 12 10 9 15 21
8 8 7 6 2 3 1 2 1 3 3 6 9 13 13 11 8 8 7 6 5 6
8 8 8 5 2 1 4 6 8 8 7 6 8 10 10 8 6 7 14 16 12 9
10 9 7 4 2 9 10 12 14 14 12 10 11 13 15 19 23 17 17 15 14 15
10 10 8 7 8 14 14 17 18 18 18 19 19 23 23 19 18 17 16 15 16 16
13 12 12 12 14 18 17 16 19 20 19 22 21 19 17 17 18 19 18 15 14 13
14 15 13 14 16 18 16 16 15 16 17 18 17 15 17 20 21 20 19 16 14 12
15 15 14 16 18 19 20 21 20 22 22 23 23 20 19 16 14 15 17 15 14 12
16 16 16 20 21 20 21 22 24 25 23 24 23 20 16 13 12 14 15 14 13 10

GFSNIL_850_spd_174.txt.gz
Wind_Speed
18 18 17 15 14 13 11 12 15 13 12 10 11 9 8 10 12 10 9 7 11 10
17 16 16 16 14 13 13 13 15 16 15 13 12 8 6 7 10 11 7 4 5 8
17 16 16 16 13 11 9 10 10 11 14 14 11 8 7 7 9 10 8 6 6 9
18 16 14 12 13 12 11 11 10 12 14 15 14 13 11 9 9 10 8 6 5 9
18 17 16 13 12 11 12 12 12 13 14 15 16 16 13 12 8 9 8 8 9 9
18 16 15 13 11 9 8 10 12 14 16 17 16 13 14 13 10 10 9 8 9 7
16 15 14 10 8 5 4 5 6 9 9 13 18 16 15 13 12 8 9 10 9 9
14 12 11 9 6 4 4 4 8 7 8 10 15 18 16 12 8 8 9 10 10 6
12 12 12 10 7 7 7 10 10 10 9 14 12 12 16 12 10 8 8 12 14 14
14 15 13 11 10 13 12 13 13 12 13 15 16 13 13 12 18 17 16 15 16 16
15 15 12 12 15 15 14 17 17 16 18 20 21 21 22 19 19 20 18 16 14 14
17 17 16 17 18 18 19 20 24 25 25 23 22 19 20 19 18 18 17 16 14 12
18 18 18 21 21 23 21 25 25 23 21 19 19 18 15 13 13 16 17 16 15 12
19 18 19 23 22 22 23 24 24 22 22 20 19 18 14 9 11 13 15 14 13 11